{"data":{"norad_id":66519,"intl_designator":"2025-265D","name":"STARLINK-35931","alt_names":[],"object_type":"PAYLOAD","status":"ACTIVE","operator":null,"country":"US","launch_date":"2025-11-19","launch_site_code":"AFETR","launch_vehicle":null,"mission":null,"orbit_class":"UNKNOWN","rcs_meters":null,"size_class":null,"mass_kg":null,"dimensions":null,"purposes":["comms"],"wikipedia_slug":null,"has_3d_model":false,"image_url":null,"decayed_at":null,"tle_current":{"epoch":"2026-05-24T20:55:36.360768Z","epoch_age_seconds":82150,"freshness":"FRESH","line1":"1 66519U 25265D   26144.87194862  .00017292  00000+0  63643-3 0  9994","line2":"2 66519  42.9998 207.7743 0001143 279.8857  80.1865 15.27579107 28760","mean_motion":15.27579107,"eccentricity":0.0001143,"inclination_deg":42.9998,"raan_deg":207.7743,"arg_perigee_deg":279.8857,"mean_anomaly_deg":80.1865,"bstar":0.00063643,"rev_number":2876,"period_min":94.266803820589,"perigee_km":482.2675361278,"apogee_km":483.83600388062,"semimajor_km":6861.1887700042,"source":"CELESTRAK","updated_at":"2026-05-25T13:38:21.249440Z"}}}